Location: Unspecified
(58.9933°N, 5.6375°E)
Time: 22:46:25
(UTC+02:00)

Cosmos 1674 - Visible Passes

Search period start: 31 March 2015 00:00
Search period end: 10 April 2015 00:00
Orbit: 507 x 535 km, 82.5° (Epoch: 30 March)

Date Brightness Start Highest point End Pass type
(mag) Time Alt. Az. Time Alt. Az. Time Alt. Az.
31 Mar 5.3 21:51:40 10° NW 21:54:42 22° W 21:57:42 10° SW visible
01 Apr 5.1 21:38:13 10° NNW 21:41:24 25° W 21:44:32 10° SW visible
02 Apr 5.0 21:24:47 10° NNW 21:28:05 27° W 21:31:21 10° SSW visible
03 Apr 4.9 21:11:20 10° NNW 21:14:44 30° W 21:18:07 10° SSW visible
